Regional Weather Roundup
Issued by NWS

Home | Current Version | Previous Version | Graphics & Text | Print | Product List | Glossary On
Versions: 1 2 3 4 5 6 7 8 9 10 11 12 13 14 15 16 17 18 19 20 21 22 23 24 25 26 27 28 29 30 31 32 33 34 35 36 37 38 39 40 41 42 43 44 45 46 47 48 49 50
000
ASUS43 KMPX 250601
RWRMN
WEATHER ROUNDUP FOR MINNESOTA
NATIONAL WEATHER SERVICE TWIN CITIES/CHANHASSEN MN
100 AM CDT FRI JUL 25 2014


NOTE: "FAIR" INDICATES FEW OR NO CLOUDS BELOW 12,000 FEET WITH NO
SIGNIFICANT WEATHER AND/OR OBSTRUCTIONS TO VISIBILITY. N/A MEANS
CURRENT SKY AND/OR WEATHER CONDITIONS ARE NOT AVAILABLE.

MNZ060>063-068>070-250700-
   Twin Cities Metro

CITY           SKY/WX    TMP DP  RH WIND       PRES   REMARKS
TWIN CITIES    MOCLDY    69  59  70 SE9       29.91F
6HR MIN TEMP:  69; 6HR MAX TEMP:  79;

ST PAUL        PTCLDY    69  60  73 SE6       29.93F
CRYSTAL        MOCLDY    70  57  63 SE7       29.89F
BLAINE         MOCLDY    70  61  73 SE6       29.92S
LAKEVILLE      PTCLDY    63  59  88 S5        29.92F
EDEN PRAIRIE   PTCLDY    67  59  75 S6        29.90F
6HR MIN TEMP:  67; 6HR MAX TEMP:  77;

SOUTH ST PAUL  PTCLDY    69  59  70 SE3       29.93R
LAKE ELMO      FAIR      66  61  82 S5        29.95R
$$
MNZ001>005-007-008-013>017-022>024-027-028-250700-
   Northwest Minnesota

CITY           SKY/WX    TMP DP  RH WIND       PRES   REMARKS
BEMIDJI        CLOUDY    66  58  77 SE7       29.85F
HALLOCK        MOCLDY    68  63  83 S5        29.80S
ROSEAU         MOCLDY    64  59  82 E5        29.84S
WARROAD        MOCLDY    64  61  88 SE6       29.85F
THIEF RVR FALL CLOUDY    68  59  73 SE9       29.81F
CROOKSTON      CLOUDY    70  61  73 SE9       29.80F
FOSSTON        CLOUDY    66  57  72 SE8       29.84F
DETROIT LAKES  MOCLDY    68  61  77 SE14G20   29.83F
MOORHEAD       LGT RAIN  70  64  83 SE9       29.75F
PARK RAPIDS    CLOUDY    67  60  78 SE8       29.86S
$$
MNZ006-009>011-018-025>026-250700-
   North Central Minnesota

CITY           SKY/WX    TMP DP  RH WIND       PRES   REMARKS
BAUDETTE       MOCLDY    64  58  80 VRB3      29.87F
FLAG ISLAND    MOCLDY    70  61  73 S9        29.85S
INTL FALLS     MOCLDY    59  58  96 CALM      29.90R
6HR MIN TEMP:  55; 6HR MAX TEMP:  72;

WASKISH        CLOUDY    63  61  94 SE3       29.86F
BIG FORK       MOCLDY    61  59  94 NE2       29.90F
LONGVILLE      CLOUDY    64  61  88 SE5       29.87F
GRAND RAPIDS   CLOUDY    63  57  82 SE3       29.90S
CRANE LAKE     PTCLDY    54  54 100 CALM      29.92S
ORR            PTCLDY    59  54  82 CALM      29.89R
COOK           PTCLDY    57  55  94 CALM      29.91S
$$
MNZ012-019>021-037-250700-
   Northeast Minnesota

CITY           SKY/WX    TMP DP  RH WIND       PRES   REMARKS
DULUTH         PTCLDY    66  56  70 S5        29.92R
6HR MIN TEMP:  63; 6HR MAX TEMP:  73; 6HR PCP: TRACE;

ELY            CLEAR     57  54  88 CALM      29.93S
HIBBING        PTCLDY    59  56  89 CALM      29.91R
EVELETH        CLEAR     57  55  94 NE5       29.93S
DULUTH HARBOR  PTCLDY    61  57  88 NE10      29.91S
TWO HARBORS    MOCLDY    61  55  82 N5        29.90F
SILVER BAY     PTCLDY    57  57 100 CALM      29.92S
GRAND MARAIS     N/A     53  51  93 CALM      29.93R
G MARAIS ARPRT MOCLDY    50  46  87 CALM      29.96S
$$
MNZ029>031-032-039>041-046>048-054>057-064-250700-
   West Central Minnesota

CITY           SKY/WX    TMP DP  RH WIND       PRES   REMARKS
FERGUS FALLS   CLOUDY    66  57  72 SE9       29.79F
WHEATON        MOCLDY    63  59  88 SE16G24   29.75F
MORRIS         CLOUDY    64  61  88 SE15G22   29.78F
ALEXANDRIA     MOCLDY    64  60  87 SE9       29.85R
ELBOW LAKE     MOCLDY    66  60  81 SE12G20   29.79F
WADENA         PTCLDY    64  61  88 SE8       29.85S
GLENWOOD       CLOUDY    64  61  88 SE14      29.83R
APPLETON       MOCLDY    68  61  77 SE12      29.78F
BENSON         CLOUDY    64  61  88 S14G22    29.81F
ORTONVILLE     MOCLDY    66  59  77 SE12      29.76F
MADISON        MOCLDY    70  63  78 SE10      29.78F
WILLMAR        FAIR      66  61  82 SE14      29.85F
$$
MNZ033>034-036-042>043-049>051-058-059-250700-
   Central Minnesota

CITY           SKY/WX    TMP DP  RH WIND       PRES   REMARKS
ST CLOUD       PTCLDY    68  59  73 E6        29.87F
6HR MIN TEMP:  66; 6HR MAX TEMP:  77;

SAUK CENTRE    FAIR      64  60  87 E9        29.85F
PAYNESVILLE    MOCLDY    63  59  87 E13G22    29.84F
AITKIN         CLOUDY    68  61  77 CALM      29.88F
PINE RIVER     CLOUDY    66  61  82 SE5       29.91S
BRAINERD       CLOUDY    65  61  87 S3        29.89F
STAPLES        PTCLDY    64  61  88 SE5       29.85F
LONG PRAIRIE   FAIR      63  59  88 E8        29.86F
LITTLE FALLS   CLEAR     64  59  82 SE9       29.85F
LITCHFIELD     MOCLDY    66  63  88 SE9       29.87F
BUFFALO        PTCLDY    67  58  73 SE7       29.89S
MAPLE LAKE     PTCLDY    67  61  81 SE5       29.89F
$$
MNZ037-044-045-052-053-250700-
   East Central Minnesota

CITY           SKY/WX    TMP DP  RH WIND       PRES   REMARKS
PRINCETON      MOCLDY    66  61  82 E5        29.90F
MORA           MOCLDY    64  59  82 S5        29.91F
CAMBRIDGE      MOCLDY    68  57  68 CALM      29.90S
RUSH CITY      CLOUDY    66  61  85 CALM      29.91F
MOOSE LAKE     CLOUDY    68  59  73 CALM      29.89S
HINCKLEY       FAIR      66  61  82 S6        29.91F
CLOQUET        MOCLDY    64  57  77 CALM      29.91S
MCGREGOR       CLOUDY    63  59  88 CALM      29.90F
$$
MNZ071>073-080-081-089-090-097-098-250700-
   Southwest Minnesota

CITY           SKY/WX    TMP DP  RH WIND       PRES   REMARKS
MONTEVIDEO     CLOUDY    66  61  82 S10G17    29.81F
GRANITE FALLS  CLOUDY    65  59  80 SE12      29.84S
CANBY          MOCLDY    69  62  81 SE12      29.79F
MARSHALL       CLOUDY    64  61  88 SE8       29.81F
REDWOOD FALLS  CLOUDY    66  60  81 SE9       29.84F
OLIVIA         CLOUDY    64  61  88 SE12      29.84F
PIPESTONE      MOCLDY    66  61  82 S12       29.81F
WINDOM         MOCLDY    63  61  94 SE12G20   29.87F
WORTHINGTON    CLOUDY    64  63  94 SE8       29.85F
JACKSON        CLOUDY    63  59  88 SE8       29.89F THUNDER
TRACY          CLOUDY    67  62  84 S5        29.85F
SLAYTON        CLOUDY    63  62  97 SE12      29.84F
$$
MNZ065>067-074>077-082>085-091>093-250700-
   South Central Minnesota

CITY           SKY/WX    TMP DP  RH WIND       PRES   REMARKS
MANKATO        MOCLDY    66  57  72 SE15G21   29.89F
NEW ULM        MOCLDY    64  63  94 SE10      29.86F
ST JAMES       MOCLDY    64  61  88 SE13G20   29.85F
FAIRMONT       MOCLDY    63  57  82 SE14      29.86F
GLENCOE        MOCLDY    67  58  72 SE10      29.88F
FARIBAULT      PTCLDY    68  55  64 SE9       29.93F
OWATONNA       MOCLDY    64  57  77 SE8       29.93F
WASECA         CLOUDY    63  54  72 SE10      29.93F
ALBERT LEA     MOCLDY    66  61  82 SE13G18   29.93F
$$
MNZ078>079-086>088-094>096-250700-
   Southeast Minnesota

CITY           SKY/WX    TMP DP  RH WIND       PRES   REMARKS
ROCHESTER      MOCLDY    63  59  87 S7        29.99F
6HR MIN TEMP:  62; 6HR MAX TEMP:  74;

RED WING       PTCLDY    70  59  68 SE5       29.93F
STANTON        CLEAR     67  58  71 SE6       29.92F
DODGE CENTER   PTCLDY    63  59  88 SE7       29.96F
WINONA         CLEAR     66  61  82 SE3       29.98F
AUSTIN         MOCLDY    63  61  94 SE6       29.96F
PRESTON        PTCLDY    63  62  97 SE5       30.00F
$$
ABBREVIATIONS USED IN REMARKS
   TC - TEMPERATURES IN CELSIUS
  WCI - WIND CHILL INDEX
   HX - HEAT INDEX
  VSB - VISIBILITY
$$



USA.gov is the U.S. government's official web portal to all federal, state and local government web resources and services.